Presure
616 456 474 454 420 450 426 426 425 487 374 348 297 281 243 237 260 248 246 231 221 211 207 207 207 216 213 209 215 192 210 224 251 289 258 257 289 259 257 265 271 146 308 347
553 484 442 467 443 435 418 428 432 393 376 336 331 285 249 239 239 260 228 219 216 216 208 208 212 213 210 200 208 200 240 231 263 278 249 254 253 258 245 265 275 366 348 354
456 458 470 459 452 428 416 438 391 368 340 338 330 284 257 237 231 241 232 252 225 214 208 208 209 215 210 208 222 245 219 267 249 241 249 243 227 255 248 243 306 408 394 380
486 481 471 463 445 413 415 347 354 332 337 332 337 306 274 243 165 239 232 210 225 217 216 213 202 211 212 222 242 224 271 252 238 228 223 251 239 238 232 242 277 293 316 329
491 454 477 471 452 392 348 340 325 329 337 334 329 196 343 268 239 216 235 229 222 214 217 214 213 198 219 230 219 201 264 154 234 225 242 231 227 237 242 239 260 319 298 319
435 448 426 448 370 357 340 335 315 305 312 327 306 323 338 286 238 231 226 224 226 224 224 219 223 222 228 260 219 273 223 210 230 241 230 240 223 250 234 256 255 261 301 299
421 422 434 364 354 333 332 331 327 313 297 306 217 316 327 323 249 238 230 224 224 225 221 222 218 218 261 205 215 206 174 237 245 234 228 237 216 228 242 232 245 251 259 288
410 466 488 333 344 332 327 327 323 311 328 307 306 312 321 337 318 234 238 232 229 222 229 238 232 258 239 178 254 230 190 241 224 212 219 232 219 238 237 227 242 240 254 262
423 476 379 333 357 325 324 307 307 168 299 299 316 324 317 310 339 348 246 240 233 236 240 243 255 236 266 285 250 198 170 219 217 227 220 216 218 221 230 232 236 227 247 248
486 448 381 339 347 327 322 316 305 322 327 326 296 297 306 306 334 351 260 239 243 241 202 245 230 255 247 176 238 154 244 206 215 232 217 217 210 220 227 223 226 232 238 232
430 451 355 350 330 325 319 293 308 315 304 297 310 316 313 307 302 294 296 289 271 267 224 215 263 233 198 224 196 184 220 188 225 227 221 213 225 234 227 217 231 230 235 228
373 413 346 351 333 322 314 301 310 323 315 306 280 276 275 277 279 276 272 274 251 219 226 249 211 264 200 239 230 267 246 223 220 215 213 219 179 236 234 242 233 230 230 232
358 356 341 324 308 296 319 312 318 298 274 266 262 260 265 266 257 245 236 228 251 282 378 249 229 192 245 197 232 232 192 201 234 173 229 228 224 239 236 242 255 247 241 232
355 361 343 328 325 325 310 318 290 279 267 262 260 271 251 243 235 234 228 220 243 285 306 230 220 234 227 228 178 173 208 224 226 227 228 216 220 246 208 214 253 266 271 228
370 356 351 362 338 320 330 288 275 267 264 265 261 246 235 218 234 227 272 230 276 262 241 242 227 233 223 224 235 233 216 218 227 240 238 209 200 222 207 210 221 226 206 210
377 355 338 332 323 323 282 275 266 265 265 259 245 237 227 244 234 225 249 251 257 249 237 222 241 192 238 244 231 250 261 282 239 225 220 212 216 216 212 228 214 220 229 212
382 358 335 331 323 294 276 271 265 258 251 254 238 225 244 227 230 226 223 245 241 241 241 236 218 251 238 250 248 260 273 256 262 266 267 267 246 233 245 236 234 218 236 232
383 364 320 327 323 284 274 265 261 254 250 247 241 229 201 245 227 220 213 219 224 227 219 226 224 217 210 220 259 255 254 256 264 263 262 272 263 269 276 240 237 233 231 226
381 370 330 329 324 286 269 265 261 252 258 233 237 238 195 241 233 221 216 227 209 223 225 233 221 227 224 210 196 210 201 233 230 235 197 214 215 251 262 264 263 265 239 224
386 339 334 341 300 285 268 253 254 255 250 234 221 230 199 204 245 244 224 211 211 209 210 216 222 223 214 219 219 211 215 216 204 208 222 224 218 218 221 224 203 241 237 242
389 337 334 336 298 287 266 263 250 258 245 244 230 224 224 210 204 238 242 238 227 211 208 207 211 204 214 211 213 214 200 213 212 212 210 212 209 212 212 211 212 212 214 219
385 357 332 337 307 288 271 260 253 247 258 248 166 225 213 213 206 214 209 176 239 236 226 221 212 208 205 201 199 205 202 192 192 192 192 191 189 191 194 195 196 197 198 197
408 375 347 342 332 298 281 255 251 245 249 251 230 232 224 228 211 205 203 196 207 187 233 226 225 221 219 217 234 214 209 209 207 202 201 200 201 199 201 205 201 202 217 223
341 381 373 353 340 297 279 263 253 257 249 245 243 229 235 220 222 203 214 196 195 217 191 234 233 232 231 232 229 234 228 225 223 239 225 228 231 229 230 227 226 225 224 227
276 366 364 368 358 330 278 269 263 257 258 254 240 244 228 229 218 215 211 214 191 204 184 197 233 232 232 231 228 227 229 232 231 227 223 223 222 221 223 227 232 237 243 247
264 297 420 363 354 343 319 277 268 262 258 257 257 247 242 232 221 223 196 216 209 208 207 194 201 235 190 206 234 232 232 232 232 230 231 232 233 234 228 224 226 225 231 256
265 264 294 499 354 344 327 311 283 274 270 261 254 251 253 242 235 219 220 88 206 200 112 213 208 211 211 201 205 213 215 214 199 205 203 212 215 219 217 214 215 211 205 215
Wind_Speed
23 39 16 3 8 2 7 15 29 38 78 83 79 67 61 60 59 55 53 49 45 40 39 40 40 38 37 39 38 32 40 50 47 33 35 35 23 29 41 52 58 21 62 54
28 18 23 7 3 9 19 26 29 62 73 71 73 67 62 61 54 56 48 44 41 41 41 41 40 39 39 29 33 31 43 39 21 17 27 28 25 30 37 49 51 58 57 39
45 25 1 4 9 14 26 29 51 60 62 65 68 63 64 59 53 52 47 47 44 44 41 41 41 40 37 30 36 37 36 13 15 22 12 25 35 29 36 32 55 21 23 25
24 10 5 10 13 29 36 46 57 56 58 58 58 65 63 64 19 53 50 40 46 45 45 44 31 38 37 36 34 32 13 10 18 24 22 9 20 24 28 40 53 46 31 21
17 15 8 17 19 42 45 51 49 50 49 51 51 12 45 59 53 43 50 47 45 45 46 42 40 20 39 32 28 25 11 19 22 19 6 12 17 29 31 35 43 23 30 17
33 13 5 25 52 53 53 55 47 42 42 45 48 41 38 59 53 50 48 47 47 47 44 43 42 37 35 27 23 15 17 16 14 2 9 11 14 25 23 33 38 41 26 21
31 7 14 41 42 36 44 52 51 46 39 42 16 44 42 47 54 51 50 48 47 47 43 41 34 32 29 22 15 23 5 17 10 4 13 9 11 26 25 31 35 33 34 33
27 6 14 11 35 31 36 39 43 39 42 39 36 34 30 28 43 57 53 49 46 44 42 37 33 30 25 14 17 13 14 15 2 7 10 13 17 22 25 28 30 27 29 30
23 6 41 15 48 27 30 33 30 12 28 28 31 28 26 25 33 43 55 49 44 41 37 29 30 27 26 26 21 21 9 15 6 7 9 9 13 19 19 26 26 18 23 26
4 13 51 25 41 27 33 28 27 26 30 30 27 28 29 31 27 33 42 51 47 39 27 32 28 23 26 13 22 13 18 14 7 8 5 7 11 11 13 15 18 20 21 17
9 24 22 38 31 31 35 27 26 26 29 31 24 29 33 38 39 40 42 42 41 38 32 27 30 24 18 18 18 1 20 8 12 6 8 9 5 6 0 6 9 13 11 15
6 21 24 39 35 32 29 33 27 23 27 37 47 46 43 42 40 39 38 36 39 29 30 38 22 33 12 32 28 20 21 20 16 11 9 7 5 7 1 5 9 3 10 8
13 20 25 23 22 24 30 30 26 44 48 48 47 45 43 41 41 42 37 32 31 29 27 36 29 17 34 19 23 24 11 13 18 11 14 11 6 9 5 3 9 10 6 11
18 28 31 28 31 30 32 31 51 54 49 49 46 45 46 44 37 36 32 29 27 33 49 28 25 38 31 30 15 14 14 18 18 16 14 11 11 10 6 6 7 11 9 12
33 30 31 37 35 32 27 53 53 53 50 50 49 47 40 28 37 33 26 27 33 39 41 42 36 35 26 27 19 22 18 13 14 13 14 11 9 11 9 9 9 11 12 14
40 35 30 30 31 34 52 54 53 52 51 50 47 42 32 41 37 33 30 30 32 33 34 26 30 19 21 17 20 7 9 9 14 11 12 11 11 12 12 10 13 13 12 14
44 41 34 33 34 54 57 58 56 50 42 47 38 29 37 26 35 31 28 34 35 33 27 21 28 20 21 15 13 5 9 8 6 4 4 6 8 9 12 11 11 15 13 14
41 42 34 38 41 59 57 54 54 47 44 42 38 31 21 38 36 32 28 30 31 34 33 31 29 28 26 25 12 12 10 7 6 5 4 5 6 5 5 13 14 15 15 16
37 41 42 42 48 60 57 55 54 47 49 33 36 34 27 33 38 34 34 36 33 32 30 30 30 27 26 28 26 24 24 10 10 9 21 16 15 10 10 11 10 9 13 17
36 40 42 40 57 61 57 41 45 49 47 36 30 33 34 29 31 30 39 36 35 34 32 29 26 28 32 27 26 26 24 21 24 23 15 14 16 15 13 13 21 13 17 17
35 38 41 45 55 60 54 56 41 50 45 44 37 35 34 33 29 30 29 30 34 36 34 32 32 32 29 27 25 25 25 24 24 22 22 21 22 21 21 21 22 23 23 24
32 36 40 46 56 59 59 55 54 47 53 48 22 39 35 32 30 23 31 22 32 31 32 33 34 33 34 32 31 30 30 31 31 31 31 31 31 30 30 30 30 31 32 34
29 38 41 44 45 59 61 57 58 49 50 53 42 45 39 37 31 29 28 30 31 25 32 32 32 31 31 30 29 31 32 31 32 33 34 35 34 35 34 33 36 37 35 34
19 25 37 43 46 56 61 64 62 63 53 48 51 43 45 39 37 34 32 32 30 33 31 35 36 34 32 30 31 29 31 30 30 26 29 28 26 28 26 27 28 30 32 34
28 14 26 34 38 48 62 66 63 63 64 58 47 52 45 43 39 38 39 38 38 35 32 33 36 35 35 34 31 30 29 28 28 28 27 26 27 28 30 31 33 34 37 41
23 26 31 35 29 35 51 69 68 65 65 64 62 53 54 52 44 45 47 44 45 40 39 35 33 37 32 32 34 32 31 30 30 29 30 31 32 31 29 27 26 26 29 39
19 20 22 33 28 34 41 56 69 68 71 70 67 60 60 53 55 49 50 10 45 36 14 38 37 35 33 33 33 32 32 33 37 36 34 31 30 29 27 26 26 27 29 32
Wind_Direction
332 332 307 48 289 38 167 151 165 171 180 188 204 202 197 209 204 205 205 208 213 220 225 231 236 240 242 250 257 255 275 278 284 293 297 297 337 311 322 345 328 270 298 293
334 314 325 5 176 147 146 147 165 172 176 190 194 204 197 207 208 203 211 214 215 219 227 235 240 244 248 247 262 273 280 278 285 269 286 280 320 337 325 351 336 297 291 285
339 337 145 71 149 145 148 149 157 167 177 182 194 204 198 205 210 206 209 206 211 220 229 234 241 245 254 264 271 280 273 282 276 278 312 325 295 349 346 342 353 322 280 230
338 319 152 142 137 148 152 160 153 168 179 190 193 202 204 200 205 203 209 212 208 217 223 232 227 248 256 264 276 270 232 242 258 292 306 337 355 355 345 1 6 7 30 69
339 356 145 136 139 147 154 162 165 170 178 177 177 205 198 201 203 203 206 210 214 221 224 232 239 233 255 266 262 266 213 262 263 298 344 333 359 5 359 7 22 359 19 58
346 23 145 145 145 149 155 159 172 178 178 174 194 193 193 204 203 203 208 209 210 217 222 229 236 244 254 263 263 203 233 256 262 352 338 10 3 22 15 27 33 35 34 48
344 66 142 163 156 162 167 168 170 177 186 189 203 203 205 207 200 205 207 208 212 215 220 228 235 241 252 245 221 249 267 229 195 75 34 34 22 22 23 34 40 48 51 56
337 120 140 180 182 183 180 174 173 178 179 185 196 201 202 205 204 201 207 209 210 215 220 227 233 241 237 234 224 169 291 216 51 84 62 42 34 23 30 46 39 42 53 65
332 133 165 174 181 171 167 171 176 251 178 185 194 197 173 187 195 189 202 207 206 210 214 219 230 227 240 206 207 261 241 209 134 108 64 54 32 31 21 53 46 56 43 50
8 163 172 175 175 166 171 166 164 173 180 176 153 159 176 179 179 184 190 200 207 205 214 213 210 206 212 194 159 238 214 192 166 168 114 84 86 25 23 36 57 47 64 60
196 162 175 176 170 163 165 166 176 169 152 149 155 153 149 149 150 158 169 182 195 203 187 202 203 201 215 168 217 155 181 156 167 184 189 109 318 292 306 88 335 67 49 94
239 165 169 179 175 173 165 153 153 167 152 144 143 144 148 152 156 162 171 179 185 183 188 179 198 197 190 143 151 198 192 167 165 161 163 133 163 288 198 237 230 252 112 106
283 187 183 179 181 172 165 154 156 149 150 150 156 160 159 156 156 166 171 177 184 200 197 184 189 194 150 182 151 161 172 173 188 186 190 182 134 240 168 139 266 223 189 147
251 190 191 192 184 178 158 160 152 152 158 160 163 157 158 163 166 168 174 178 176 175 172 178 183 159 161 154 204 198 181 179 181 172 163 162 136 216 205 171 189 232 193 169
205 197 183 185 189 167 172 158 159 163 168 165 162 164 167 170 168 175 168 169 169 166 180 171 191 166 167 166 177 171 181 177 188 197 191 177 212 151 168 172 159 199 187 184
197 197 192 184 174 169 167 166 168 170 173 169 167 170 169 169 174 180 167 175 173 174 179 176 160 221 158 177 172 200 244 278 210 203 208 196 184 180 190 179 199 195 192 212
194 193 192 188 176 169 172 173 175 179 180 176 174 171 171 173 180 180 181 174 171 169 161 165 190 160 164 165 168 213 209 214 221 230 240 236 216 212 214 207 203 207 192 204
190 191 191 185 181 177 179 181 184 186 187 185 181 181 176 175 181 186 189 190 189 186 202 184 178 185 196 180 178 196 196 217 232 223 223 240 186 185 191 213 216 214 210 213
191 188 189 186 183 181 184 189 191 193 190 191 192 185 191 176 186 193 193 190 206 193 194 182 193 177 180 206 229 199 220 178 198 197 224 222 218 194 198 193 199 204 226 229
188 189 188 188 186 186 192 202 201 198 196 198 193 195 189 185 186 190 198 207 210 213 210 208 202 190 206 198 197 207 195 201 223 219 203 201 213 216 219 225 248 211 219 220
192 198 192 190 194 191 199 200 206 205 203 202 201 203 197 190 192 195 197 203 207 215 217 219 217 219 213 212 212 217 235 222 226 227 230 228 239 230 235 239 245 251 255 257
201 201 207 196 200 198 201 205 209 214 208 207 225 211 204 200 196 198 209 236 210 213 217 222 224 224 227 228 231 228 234 245 248 249 249 251 255 255 256 258 260 263 265 268
209 210 212 206 208 204 204 210 214 218 216 211 208 212 220 216 208 200 205 212 214 229 219 227 232 233 236 239 233 243 244 246 249 248 249 250 252 255 258 259 261 264 269 265
356 228 221 221 212 213 211 212 220 219 224 219 216 216 219 218 218 216 201 219 215 225 222 220 226 231 233 232 240 239 246 248 249 242 251 251 250 256 262 262 264 266 268 270
347 287 246 235 229 216 217 220 222 224 226 227 221 220 222 225 221 220 222 214 234 217 227 230 227 233 235 237 238 239 240 241 244 247 251 253 254 256 262 267 272 277 282 283
339 356 235 243 238 224 217 221 225 228 229 231 232 226 224 225 223 227 224 230 229 222 221 230 228 232 238 238 243 245 248 250 251 252 253 255 257 260 262 268 277 284 295 293
330 337 357 233 239 227 222 222 224 228 228 230 234 235 232 225 225 229 231 280 230 227 291 235 235 233 235 238 239 240 240 241 251 251 254 253 255 257 263 267 272 275 275 278